Humidity-temperature Sensor

Selected Measurement Type: Relative Humidity

 
Relative Humidity [%]     6 entries per hour
Showing data from 8/31/2018 (23:50:00 Z) to 8/24/2018 (00:01:00 Z)
Previous Next [ Day | 3-Days | 7-Days ]
First Last
Prev [ Day | 3-Days | 7-Days ] Next
First Last

Start Time:     :
End Time:     :     
Time (in GMT) :00 :50 :40 :30 :20 :10
Previous Next [ Day | 3-Days | 7-Days ]
First Last
Prev [ Day | 3-Days | 7-Days ] Next
First Last


123 => good data
MM => data is determined as missing
-- => data not received/configured
Back to Top Back to Top
9/1/2018 00:00 to 23:10 -- 76.20 76.41 76.41 76.60 77.11
8/31/2018 23:00 to 22:10 77.82 77.91 77.95 77.70 77.76 77.67
8/31/2018 22:00 to 21:10 78.43 78.92 77.84 77.86 79.23 80.31
8/31/2018 21:00 to 20:10 81.13 83.95 84.78 88.99 90.59 87.43
8/31/2018 20:00 to 19:10 90.36 90.29 87.49 88.19 87.35 88.27
8/31/2018 19:00 to 18:10 88.25 86.14 82.96 83.87 84.52 82.31
8/31/2018 18:00 to 17:10 86.42 84.80 82.42 82.27 82.63 82.90
8/31/2018 17:00 to 16:10 78.96 79.06 78.43 80.85 81.82 83.45
8/31/2018 16:00 to 15:10 79.04 76.60 76.20 78.07 78.62 78.81
8/31/2018 15:00 to 14:10 76.92 76.85 76.66 77.99 77.72 79.59
8/31/2018 14:00 to 13:10 80.10 77.95 78.28 78.66 78.56 80.31
8/31/2018 13:00 to 12:10 80.12 81.26 79.67 78.62 77.48 76.66
8/31/2018 12:00 to 11:10 78.05 78.92 78.60 79.02 78.50 79.42
8/31/2018 11:00 to 10:10 78.73 79.09 79.13 79.40 79.36 78.85
8/31/2018 10:00 to 9:10 78.33 78.07 79.15 79.86 79.82 80.20
8/31/2018 09:00 to 8:10 80.20 80.52 79.23 79.28 80.62 80.92
8/31/2018 08:00 to 7:10 80.96 80.06 80.43 79.76 80.88 79.80
8/31/2018 07:00 to 6:10 79.61 79.99 81.15 81.44 80.85 81.55
8/31/2018 06:00 to 5:10 81.28 81.13 80.92 81.34 81.24 81.61
8/31/2018 05:00 to 4:10 80.20 81.15 81.74 81.44 81.53 80.22
8/31/2018 04:00 to 3:10 80.48 81.63 82.67 82.48 82.04 83.01
8/31/2018 03:00 to 2:10 83.85 85.93 86.92 88.84 88.46 89.52
8/31/2018 02:00 to 1:10 89.18 88.02 87.68 87.49 88.40 88.10
8/31/2018 01:00 to 0:10 87.98 87.68 87.60 86.61 88.34 89.12
8/31/2018 00:00 to 23:10 88.76 87.13 85.85 85.26 85.83 85.30
8/30/2018 23:00 to 22:10 82.84 82.10 81.57 81.70 80.35 81.32
8/30/2018 22:00 to 21:10 80.16 80.33 80.86 80.67 79.95 81.61
8/30/2018 21:00 to 20:10 81.80 82.48 81.19 83.05 83.72 82.69
8/30/2018 20:00 to 19:10 82.10 81.85 82.73 82.92 83.28 83.91
8/30/2018 19:00 to 18:10 83.87 83.03 81.70 82.39 81.51 81.76
8/30/2018 18:00 to 17:10 80.69 79.97 80.03 81.45 83.05 83.53
8/30/2018 17:00 to 16:10 84.63 83.62 83.55 83.76 84.96 87.22
8/30/2018 16:00 to 15:10 86.25 83.43 83.76 81.66 80.96 80.39
8/30/2018 15:00 to 14:10 80.90 80.41 82.52 83.38 84.86 83.11
8/30/2018 14:00 to 13:10 82.01 83.17 83.80 82.67 82.23 82.10
8/30/2018 13:00 to 12:10 81.82 80.88 80.73 80.69 80.79 81.82
8/30/2018 12:00 to 11:10 82.18 83.40 83.17 82.77 83.53 84.58
8/30/2018 11:00 to 10:10 86.08 84.63 85.13 86.52 89.20 92.32
8/30/2018 10:00 to 9:10 93.33 93.37 92.45 93.67 94.43 94.02
8/30/2018 09:00 to 8:10 95.63 94.91 92.36 91.96 90.51 87.75
8/30/2018 08:00 to 7:10 87.91 86.78 85.85 87.35 85.37 87.16
8/30/2018 07:00 to 6:10 86.31 85.15 86.82 88.67 87.70 85.62
8/30/2018 06:00 to 5:10 82.88 80.83 80.60 83.15 83.53 84.82
8/30/2018 05:00 to 4:10 84.59 84.31 85.51 85.66 86.71 87.11
8/30/2018 04:00 to 3:10 86.67 86.86 86.75 86.29 85.98 87.20
8/30/2018 03:00 to 2:10 88.25 89.60 85.74 87.28 91.56 88.46
8/30/2018 02:00 to 1:10 87.01 87.58 87.91 87.94 89.07 87.51
8/30/2018 01:00 to 0:10 88.15 85.05 85.83 83.99 84.82 85.30
8/30/2018 00:00 to 23:10 86.21 87.03 87.41 85.39 86.02 87.05
8/29/2018 23:00 to 22:10 86.90 89.90 88.97 85.45 86.10 87.96
8/29/2018 22:00 to 21:10 86.12 84.25 85.55 91.45 92.45 93.12
8/29/2018 21:00 to 20:10 91.50 88.99 87.66 89.24 91.48 92.28
8/29/2018 20:00 to 19:10 91.79 91.56 92.63 93.65 92.49 91.85
8/29/2018 19:00 to 18:10 89.56 84.40 84.33 84.21 85.55 83.78
8/29/2018 18:00 to 17:10 82.84 83.41 85.47 86.54 88.88 83.28
8/29/2018 17:00 to 16:10 83.74 85.66 86.42 84.90 85.45 87.28
8/29/2018 16:00 to 15:10 89.07 90.00 88.84 88.04 88.55 90.97
8/29/2018 15:00 to 14:10 90.99 93.81 95.27 94.11 90.70 88.06
8/29/2018 14:00 to 13:10 88.53 88.97 90.91 92.17 91.77 92.51
8/29/2018 13:00 to 12:10 92.07 92.23 88.48 84.31 83.57 84.59
8/29/2018 12:00 to 11:10 89.30 90.13 91.50 89.20 86.46 85.07
8/29/2018 11:00 to 10:10 84.18 83.59 84.73 84.44 83.99 83.81
8/29/2018 10:00 to 9:10 83.36 84.40 86.04 89.73 92.06 90.93
8/29/2018 09:00 to 8:10 89.30 88.23 85.24 85.43 85.93 85.64
8/29/2018 08:00 to 7:10 83.32 84.88 81.61 81.11 81.87 84.71
8/29/2018 07:00 to 6:10 84.12 85.03 88.44 89.28 90.91 90.97
8/29/2018 06:00 to 5:10 87.79 85.05 85.81 86.86 86.04 85.60
8/29/2018 05:00 to 4:10 89.28 90.57 86.42 86.63 90.11 90.23
8/29/2018 04:00 to 3:10 90.53 91.33 89.05 85.64 85.62 87.01
8/29/2018 03:00 to 2:10 84.48 86.10 85.45 85.28 83.91 84.29
8/29/2018 02:00 to 1:10 85.07 83.81 84.78 86.38 87.09 87.05
8/29/2018 01:00 to 0:10 86.73 87.47 87.16 86.92 84.31 84.14
8/29/2018 00:00 to 23:10 83.26 85.66 87.26 89.60 83.34 81.38
8/28/2018 23:00 to 22:10 80.03 79.61 80.37 80.18 82.35 81.70
8/28/2018 22:00 to 21:10 80.86 80.03 80.83 80.90 79.91 81.19
8/28/2018 21:00 to 20:10 81.28 82.50 80.65 80.26 81.80 82.42
8/28/2018 20:00 to 19:10 81.87 81.80 80.73 81.42 82.79 82.25
8/28/2018 19:00 to 18:10 82.73 84.10 84.63 84.14 84.63 84.78
8/28/2018 18:00 to 17:10 85.70 86.86 87.72 90.09 91.54 91.41
8/28/2018 17:00 to 16:10 94.72 93.90 93.18 93.03 91.62 90.40
8/28/2018 16:00 to 15:10 90.36 87.11 84.39 84.82 83.40 81.91
8/28/2018 15:00 to 14:10 80.33 79.00 79.99 80.94 81.09 79.63
8/28/2018 14:00 to 13:10 79.53 77.78 80.54 81.40 82.60 82.35
8/28/2018 13:00 to 12:10 80.43 81.87 81.64 84.18 85.49 89.81
8/28/2018 12:00 to 11:10 88.72 84.71 85.13 86.31 85.89 86.48
8/28/2018 11:00 to 10:10 87.51 88.15 85.91 88.82 88.29 88.00
8/28/2018 10:00 to 9:10 86.90 87.98 88.82 88.31 88.80 90.17
8/28/2018 09:00 to 8:10 87.64 87.89 86.33 87.20 86.52 87.11
8/28/2018 08:00 to 7:10 85.39 85.72 86.71 87.26 86.84 85.74
8/28/2018 07:00 to 6:10 86.95 85.96 85.53 85.85 86.14 86.94
8/28/2018 06:00 to 5:10 86.19 87.22 87.13 86.67 87.81 87.20
8/28/2018 05:00 to 4:10 89.22 92.00 93.29 94.99 93.88 94.61
8/28/2018 04:00 to 3:10 94.91 95.80 96.57 95.96 95.80 95.08
8/28/2018 03:00 to 2:10 94.70 94.28 92.49 91.35 90.46 89.90
8/28/2018 02:00 to 1:10 89.98 88.99 87.94 87.83 88.27 86.67
8/28/2018 01:00 to 0:10 86.10 84.98 84.59 84.69 84.21 84.37
8/28/2018 00:00 to 23:10 84.39 84.44 85.51 84.86 84.73 84.77
8/27/2018 23:00 to 22:10 84.88 85.95 85.70 86.50 84.69 85.74
8/27/2018 22:00 to 21:10 86.46 85.85 85.57 85.51 84.52 84.25
8/27/2018 21:00 to 20:10 84.23 83.68 84.25 84.44 84.71 85.32
8/27/2018 20:00 to 19:10 84.82 84.77 84.90 84.40 84.16 85.39
8/27/2018 19:00 to 18:10 85.15 84.75 84.69 84.56 85.39 86.08
8/27/2018 18:00 to 17:10 85.64 86.54 86.00 85.77 86.14 85.79
8/27/2018 17:00 to 16:10 86.61 85.11 86.63 85.30 85.18 86.54
8/27/2018 16:00 to 15:10 86.54 86.40 87.01 87.41 89.47 90.25
8/27/2018 15:00 to 14:10 91.26 92.19 92.26 92.55 91.75 92.23
8/27/2018 14:00 to 13:10 91.27 91.14 89.98 90.38 89.75 90.74
8/27/2018 13:00 to 12:10 90.29 89.92 90.99 91.67 91.27 92.32
8/27/2018 12:00 to 11:10 94.07 94.72 95.90 96.34 96.28 95.90
8/27/2018 11:00 to 10:10 95.61 94.95 94.76 94.45 91.85 88.91
8/27/2018 10:00 to 9:10 88.13 88.40 87.56 87.09 86.75 86.69
8/27/2018 09:00 to 8:10 86.54 86.36 85.49 84.54 84.50 83.99
8/27/2018 08:00 to 7:10 84.77 85.18 85.36 85.43 85.07 85.05
8/27/2018 07:00 to 6:10 84.99 84.33 83.83 84.75 84.98 85.79
8/27/2018 06:00 to 5:10 85.70 86.71 86.52 87.58 88.06 87.98
8/27/2018 05:00 to 4:10 88.15 88.17 88.06 88.44 87.94 88.02
8/27/2018 04:00 to 3:10 87.75 86.82 86.71 86.35 85.11 84.99
8/27/2018 03:00 to 2:10 84.65 83.66 83.78 84.29 84.65 84.78
8/27/2018 02:00 to 1:10 85.37 84.19 84.59 83.93 83.99 82.92
8/27/2018 01:00 to 0:10 83.43 82.98 82.79 82.69 82.14 82.20
8/27/2018 00:00 to 23:10 81.76 82.98 82.14 82.35 81.13 80.88
8/26/2018 23:00 to 22:10 81.64 81.32 81.23 80.37 81.70 80.67
8/26/2018 22:00 to 21:10 81.66 81.21 81.17 81.91 81.66 81.97
8/26/2018 21:00 to 20:10 81.70 81.66 81.11 80.48 80.58 80.01
8/26/2018 20:00 to 19:10 80.65 80.01 81.72 80.54 80.85 81.83
8/26/2018 19:00 to 18:10 82.25 82.84 82.08 81.53 82.48 81.91
8/26/2018 18:00 to 17:10 81.05 80.71 79.09 79.59 81.59 80.60
8/26/2018 17:00 to 16:10 80.58 82.06 81.74 81.44 80.58 81.76
8/26/2018 16:00 to 15:10 80.92 80.43 80.43 78.20 78.60 79.08
8/26/2018 15:00 to 14:10 79.04 77.70 76.81 75.99 77.76 77.51
8/26/2018 14:00 to 13:10 77.38 77.19 77.13 77.19 76.77 76.98
8/26/2018 13:00 to 12:10 77.61 76.39 76.96 76.56 76.98 77.17
8/26/2018 12:00 to 11:10 76.73 77.30 77.40 77.55 78.24 78.49
8/26/2018 11:00 to 10:10 78.60 79.51 79.34 79.21 79.55 79.55
8/26/2018 10:00 to 9:10 78.85 78.71 79.97 78.81 79.19 78.92
8/26/2018 09:00 to 8:10 78.87 77.61 79.25 77.99 77.48 78.68
8/26/2018 08:00 to 7:10 77.11 77.57 77.84 77.38 76.52 76.30
8/26/2018 07:00 to 6:10 76.68 77.38 77.23 76.43 76.91 77.21
8/26/2018 06:00 to 5:10 77.25 77.06 76.43 76.30 76.92 77.59
8/26/2018 05:00 to 4:10 78.03 76.64 77.55 78.54 76.98 78.01
8/26/2018 04:00 to 3:10 77.95 78.56 79.00 80.27 78.79 77.27
8/26/2018 03:00 to 2:10 78.37 78.75 79.21 79.02 79.51 77.40
8/26/2018 02:00 to 1:10 76.91 77.10 76.41 77.38 77.21 76.66
8/26/2018 01:00 to 0:10 79.25 78.69 79.47 79.11 80.05 81.55
8/26/2018 00:00 to 23:10 81.30 81.04 81.23 80.73 80.94 80.43
8/25/2018 23:00 to 22:10 80.77 80.31 77.74 76.22 75.48 74.91
8/25/2018 22:00 to 21:10 75.04 76.03 76.56 76.87 77.57 77.53
8/25/2018 21:00 to 20:10 76.94 77.42 77.86 77.99 77.10 77.19
8/25/2018 20:00 to 19:10 77.06 76.22 76.92 76.33 74.58 75.29
8/25/2018 19:00 to 18:10 75.29 76.35 76.62 77.21 77.04 77.21
8/25/2018 18:00 to 17:10 74.41 75.69 75.61 74.30 75.78 75.25
8/25/2018 17:00 to 16:10 76.20 76.58 75.86 75.71 75.95 76.51
8/25/2018 16:00 to 15:10 76.14 77.34 77.93 76.26 73.92 73.97
8/25/2018 15:00 to 14:10 74.91 75.82 75.76 75.88 75.53 76.26
8/25/2018 14:00 to 13:10 77.21 78.14 77.70 77.91 77.95 77.91
8/25/2018 13:00 to 12:10 79.55 80.96 81.57 79.06 79.44 79.19
8/25/2018 12:00 to 11:10 77.25 77.17 76.09 76.83 77.21 76.73
8/25/2018 11:00 to 10:10 77.30 78.88 79.61 80.56 81.05 81.19
8/25/2018 10:00 to 9:10 79.59 78.29 79.87 78.45 79.36 77.86
8/25/2018 09:00 to 8:10 78.20 79.49 80.18 79.40 80.27 78.28
8/25/2018 08:00 to 7:10 79.09 77.97 79.70 80.81 80.06 78.77
8/25/2018 07:00 to 6:10 79.42 80.46 80.18 79.28 78.75 78.50
8/25/2018 06:00 to 5:10 77.36 77.80 78.69 79.25 78.58 78.47
8/25/2018 05:00 to 4:10 78.47 79.02 81.11 78.88 78.96 79.68
8/25/2018 04:00 to 3:10 78.49 79.21 79.08 80.58 81.42 81.42
8/25/2018 03:00 to 2:10 79.30 80.69 81.55 81.23 81.99 82.56
8/25/2018 02:00 to 1:10 82.82 85.05 86.46 88.57 90.11 89.33
8/25/2018 01:00 to 0:10 90.15 86.48 80.16 79.97 80.22 80.33
8/25/2018 00:00 to 23:10 81.70 82.88 81.34 83.09 84.16 84.54
8/24/2018 23:00 to 22:10 82.71 83.53 82.06 80.43 82.42 83.97
8/24/2018 22:00 to 21:10 85.64 88.52 88.55 88.61 89.33 87.85
8/24/2018 21:00 to 20:10 88.61 88.71 89.11 90.42 90.91 89.18
8/24/2018 20:00 to 19:10 82.44 82.65 83.64 82.96 83.95 84.96
8/24/2018 19:00 to 18:10 83.00 83.45 85.22 83.95 83.07 82.12
8/24/2018 18:00 to 17:10 82.06 82.35 79.87 79.84 80.77 80.71
8/24/2018 17:00 to 16:10 80.73 80.77 80.48 80.69 80.16 80.18
8/24/2018 16:00 to 15:10 80.85 81.38 82.98 83.40 85.68 87.85
8/24/2018 15:00 to 14:10 88.76 86.25 87.32 81.64 81.76 82.27
8/24/2018 14:00 to 13:10 82.44 81.45 80.26 81.78 81.99 82.65
8/24/2018 13:00 to 12:10 81.87 80.79 81.19 82.62 81.99 82.94
8/24/2018 12:00 to 11:10 79.04 79.47 79.82 80.86 81.36 79.86
8/24/2018 11:00 to 10:10 79.93 79.36 81.44 79.82 78.39 78.75
8/24/2018 10:00 to 9:10 78.41 79.47 80.10 79.76 79.25 80.45
8/24/2018 09:00 to 8:10 81.11 82.01 81.15 79.91 79.89 80.29
8/24/2018 08:00 to 7:10 79.67 79.63 79.38 81.13 81.93 82.73
8/24/2018 07:00 to 6:10 83.28 83.40 84.82 85.55 87.32 88.63
8/24/2018 06:00 to 5:10 89.14 86.14 83.74 86.33 86.73 86.57
8/24/2018 05:00 to 4:10 86.65 86.73 86.86 86.54 86.99 87.94
8/24/2018 04:00 to 3:10 86.17 89.31 93.65 92.85 88.86 89.26
8/24/2018 03:00 to 2:10 88.19 86.38 87.64 91.37 90.97 90.06
8/24/2018 02:00 to 1:10 93.62 95.37 90.89 93.67 94.47 92.91
8/24/2018 01:00 to 0:10 89.70 90.70 90.34 91.62 89.98 90.13